{"data":{"norad_id":68516,"intl_designator":"2026-068J","name":"STARLINK-36290","alt_names":[],"object_type":"PAYLOAD","status":"ACTIVE","operator":null,"country":"US","launch_date":"2026-03-30","launch_site_code":"AFETR","launch_vehicle":null,"mission":null,"orbit_class":"UNKNOWN","rcs_meters":null,"size_class":null,"mass_kg":null,"dimensions":null,"purposes":["comms"],"wikipedia_slug":null,"has_3d_model":false,"image_url":null,"decayed_at":null,"tle_current":{"epoch":"2026-09-20T03:10:22.797120Z","epoch_age_seconds":79397,"freshness":"FRESH","line1":"1 68516U 26068J   26263.13220830  .00009410  00000+0  28932-3 0  9996","line2":"2 68516  53.1543 301.2152 0002053  91.0482 269.0755 15.34398130 26781","mean_motion":15.3439813,"eccentricity":0.0002053,"inclination_deg":53.1543,"raan_deg":301.2152,"arg_perigee_deg":91.0482,"mean_anomaly_deg":269.0755,"bstar":0.00028932,"rev_number":2678,"period_min":93.847872455371,"perigee_km":461.30437260446,"apogee_km":464.11322388921,"semimajor_km":6840.8457982468,"source":"CELESTRAK","updated_at":"2026-09-20T09:00:43.903035Z"}}}